Location: Grand Eddy
(37.7551°N, 89.6862°W)
Time: 14:23:12
(UTC+00:00)

Daily predictions for brighter satellites

Satellite Brightness Start Highest point End
(mag) Time Altitude Azimuth Time Altitude Azimuth Time Altitude Azimuth
ATLAS 5 CENTAUR R/B 2.4 12:03:12 14° W 12:05:39 24° NW 12:09:04 10° N
CZ-4B R/B 2.5 12:04:21 10° N 12:07:54 66° WNW 12:11:32 10° SSW
Cosmos 1340 Rocket 3.2 12:04:35 10° SSW 12:08:19 41° WNW 12:12:07 10° N
Cosmos 158 Rocket 4.2 12:03:40 10° NNW 12:08:51 76° ENE 12:14:08 10° SSE
Envisat 4.1 12:05:09 10° NNW 12:09:00 22° WNW 12:12:50 10° WSW
Nadezhda 4 Rocket 4.3 12:06:43 10° SSW 12:12:32 44° WNW 12:18:27 10° N
Alouette 2 Rocket 3.1 12:09:41 10° NNW 12:13:15 82° W 12:17:07 10° S
Cosmos 1500 Rocket 4.0 12:09:06 10° SSW 12:13:17 41° W 12:17:32 10° N
NOAA 6 4.5 12:10:24 10° NNE 12:15:31 69° ESE 12:20:36 10° S
Sich 1 3.0 12:11:59 10° S 12:16:15 88° W 12:20:32 10° N
DMSP B5D2-2 4.1 12:11:25 10° S 12:16:35 67° WSW 12:21:47 10° NNW
Lacrosse 4 Rocket 4.2 12:21:12 10° NNE 12:22:54 12° NE 12:24:35 10° ENE
ATLAS 3B R/B 3.0 12:18:42 10° WSW 12:24:48 41° NW 12:31:11 10° NNE
H-2A R/B 2.0 12:21:05 10° S 12:25:20 82° WSW 12:29:44 10° NNW
Cosmos 1805 Rocket 3.7 12:21:24 10° SSW 12:25:40 52° W 12:29:57 10° N
Meteor 1-27 Rocket 4.3 12:22:23 10° NNW 12:27:39 39° W 12:32:59 10° SSW
BREEZE-M DEB (TANK) 3.6 12:17:56 10° NW 12:28:08 85° SW 12:31:21 10° SE
Lacrosse 5 2.4 12:23:09 10° SSW 12:28:10 66° SE 12:33:14 10° NE
Cosmos 1428 Rocket 4.5 12:22:51 10° SSW 12:28:56 66° W 12:35:02 10° N
Cosmos 1707 Rocket 4.3 12:26:09 10° N 12:30:33 58° E 12:34:56 10° SSE
COSMOS 2487 2.6 12:27:48 10° NNW 12:31:03 49° WSW 12:34:16 10° S
Cosmos 1092 Rocket 4.1 12:25:25 10° SSW 12:31:31 55° W 12:37:42 10° N
AQUARIUS 4.1 12:30:31 10° N 12:35:00 77° WNW 12:39:29 10° SSW
SL-08 R/B 4.1 22:59:06 10° N 23:03:39 54° WNW 23:08:07 10° SSW
Cosmos 2369 3.8 22:58:02 10° NNW 23:03:43 59° ENE 23:09:18 10° SE
USA 267 3.5 22:58:59 10° NE 23:05:30 72° NW 23:11:58 10° WSW
Cosmos 1937 Rocket 3.5 23:01:55 10° NNW 23:07:15 78° ENE 23:12:32 10° SSE
Cosmos 2082 Rocket 2.3 23:02:03 10° SSW 23:07:44 84° WNW 23:13:26 10° NNE
Cosmos 372 Rocket 4.2 23:02:59 10° N 23:08:04 49° ENE 23:13:07 10° SE
FengYun 1-2 T 4.2 23:02:42 10° SSE 23:08:14 67° ENE 23:13:44 10° N
SL-16 R/B 3.7 23:06:20 10° NNE 23:09:26 15° NE 23:12:32 10° E
H-2A R/B 2.9 23:05:50 10° SE 23:10:08 27° ENE 23:14:21 10° NNE
ARGOS 4.4 23:08:54 10° ESE 23:12:33 19° ENE 23:16:10 10° NNE
CZ-2C R/B 3.1 23:07:45 10° S 23:12:39 77° WSW 23:17:26 10° NNW
Cosmos 1151 Rocket 3.4 23:09:27 10° SSE 23:13:33 44° E 23:17:42 10° NNE
Cosmos 1500 3.2 23:10:53 10° N 23:14:33 54° E 23:18:10 10° SSE
COSMO-SKYMED 1 3.9 23:11:50 10° NE 23:15:11 21° E 23:18:30 10° SE
Cosmos 1633 Rocket 3.9 23:12:40 10° NNE 23:16:31 29° ENE 23:20:21 10° SE
X-37B 0.6 23:17:44 10° SW 23:20:32 57° SSE 23:23:02 12° ENE
Cosmos 1939 Rocket 2.8 23:17:23 10° SSE 23:21:30 79° ENE 23:25:34 10° N
Centaur D-1A AC-32 4.5 23:16:53 10° WSW 23:22:39 23° SSW 23:25:48 10° SE
Cosmos 1833 Rocket 4.5 23:18:09 10° WSW 23:22:57 28° WNW 23:27:47 10° N
CZ-4B DEB 4.3 23:19:01 10° SSE 23:24:22 55° ENE 23:29:43 10° N
CZ-2D R/B 3.8 23:22:02 10° SE 23:25:32 35° ENE 23:29:02 10° N
Cosmos 2278 3.9 23:20:54 10° NNW 23:26:27 50° ENE 23:31:55 10° SE
Cosmos 1092 Rocket 4.4 23:23:12 10° N 23:29:32 73° W 23:35:47 10° S
Cosmos 1782 3.7 23:25:46 10° SSW 23:29:39 53° W 23:33:34 10° N
NOAA 6 4.0 23:24:54 10° SSE 23:30:02 83° ENE 23:35:11 10° NNW
AQUARIUS 4.1 23:27:11 10° SSE 23:31:38 75° ENE 23:36:08 10° N
Meteor 1-14 Rocket 4.4 23:26:51 10° N 23:32:40 60° ENE 23:38:32 10° SSE
USA 234 3.7 23:30:12 10° E 23:36:14 41° NNE 23:42:16 10° NW
CZ-2C R/B 2.9 23:32:58 10° NNE 23:37:53 43° E 23:42:47 10° S
Cosmos 1328 Rocket 3.5 23:36:51 10° S 23:41:14 66° E 23:45:38 10° NNE
MOS 1-B 4.4 23:37:26 10° SSE 23:43:04 58° ENE 23:48:44 10° N
Cosmos 1666 2.5 23:39:42 10° N 23:43:24 67° E 23:47:04 10° SSE
Cosmos 1666 Rocket 3.5 23:41:00 10° N 23:45:27 79° E 23:49:49 10° S
SL-24 R/B - RUBIN 2 3.8 23:41:56 10° NW 23:46:19 70° WSW 23:50:35 10° SSE
Okean O Rocket 2.3 23:42:29 10° SE 23:46:23 31° ENE 23:50:17 10° N
SMAP 3.7 23:44:11 10° S 23:48:45 59° W 23:53:22 10° NNW
Cosmos 2279 Rocket 4.0 23:42:41 10° S 23:48:54 86° W 23:55:08 10° N
Cosmos 1470 Rocket 4.0 23:44:47 10° N 23:48:59 39° ENE 23:53:10 10° SSE
CZ-4B R/B 3.3 23:46:24 10° SE 23:51:36 50° ENE 23:56:44 10° N
ATLAS 5 CENTAUR R/B 3.6 23:51:41 10° NNW 23:54:36 15° NNE 23:54:52 15° NNE
CZ-4C R/B 4.0 23:54:58 24° ESE 23:54:58 24° ESE 23:57:39 10° SSE
Meteor 1-27 Rocket 4.2 23:49:54 10° SSE 23:54:51 35° E 23:59:06 13° NNE
Lacrosse 5 rocket 2.1 23:51:52 10° NNW 23:55:26 30° NE 23:56:31 26° ENE
